Regional Weather Roundup
Issued by NWS

Home | Current Version | Previous Version | Graphics & Text | Print | Product List | Glossary On
Versions: 1 2 3 4 5 6 7 8 9 10 11 12 13 14 15 16 17 18 19 20 21 22 23 24 25 26 27 28 29 30 31 32 33 34 35 36 37 38 39 40 41 42 43 44 45 46 47 48 49 50
531
ASUS43 KLOT 270503
RWRIL

ILLINOIS REGIONAL WEATHER ROUNDUP
NATIONAL WEATHER SERVICE CHICAGO/ROMEOVILLE IL
1200 AM CDT FRI MAY 27 2016

NOTE: "FAIR" INDICATES FEW OR NO CLOUDS BELOW 12,000 FEET WITH NO
SIGNIFICANT WEATHER AND/OR OBSTRUCTIONS TO VISIBILITY.

* THESE STATIONS ARE NOT UNDER NWS QUALITY CONTROL. THEY ALSO MAY NOT
  REPORT WEATHER SUCH AS PRECIPITATION OR FOG.

ILZ001-002-007-009-015-016-024-270600-
NORTHWEST ILLINOIS

CITY           SKY/WX    TMP DP  RH WIND       PRES   REMARKS
MOLINE         CLOUDY    75  62  64 W5        29.85F
STERLING*      MOCLDY    75  65  70 VRB3      29.87F
$$

ILZ003-004-008-010-011-017-018-270600-
NORTH CENTRAL ILLINOIS

CITY           SKY/WX    TMP DP  RH WIND       PRES   REMARKS
ROCKFORD       CLOUDY    73  64  73 CALM      29.89F
FREEPORT*      CLOUDY    69  61  76 CALM      29.89F
ROCHELLE*      CLOUDY    72  65  80 S13       29.88F
$$

ILZ005-006-012>014-019>023-270600-
NORTHEAST ILLINOIS

CITY           SKY/WX    TMP DP  RH WIND       PRES   REMARKS
CHICAGO-OHARE  CLOUDY    75  65  70 S10       29.87F
CHICAGO-MIDWAY CLOUDY    76  66  71 S13       29.89F
AURORA         CLOUDY    74  66  76 S6        29.89S
LANSING*       MOCLDY    71  65  81 S12       29.92S
WAUKEGAN       MOCLDY    64  61  90 CALM      29.87F
DUPAGE AIRPORT CLOUDY    73  64  73 S10       29.88F
WHEELING       CLOUDY    72  63  73 S3        29.88F
NORTHERLY ISL    N/A     75  64  68 S13         N/A
NORTHERLY ISL    N/A     75  64  68 S13         N/A
$$

LMZ740>746-270600-
SOUTHERN LAKE MICHIGAN

STATION/POSITION SKY/WX   TEMP    WIND        PRES    VSBY  WAVE
                          AIR SEA DIR/SP/G                  HT/PER
                          (F)     (DEG/KT/KT) (MB)    (MI)  (FT/S)
SOUTHERN BUOY              57 50  150/  8/  8 1011.7          0
WILMETTE HARBOR            61 58  180/  4/  6   N/A           0
HARRISON CRIB              72     190/ 12/ 13   N/A
BURNHAM HARBOR             75     200/ 11/ 14   N/A
CALUMET HARBOR             76     170/ 10/ 14 1012.3R
BURNS HARBOR               73     190/ 14/ 23 1013.5R
MICHIGAN CITY              74     170/ 12/ 14   N/A
MICHIGAN CITY 6N           68 61  200/  8/ 10   N/A           0
ST. JOSEPH                 68 64  170/  6/  6   N/A           0
$$

ILZ025>027-034>036-040-047-049-050-058-095>099-270600-
WEST-CENTRAL ILLINOIS

CITY           SKY/WX    TMP DP  RH WIND       PRES   REMARKS
QUINCY         LGT RAIN  66  62  87 NW20G26   29.90R
MACOMB*        CLOUDY    73  66  79 N14G24    29.89S
PITTSFIELD*    CLOUDY    72  67  84 SW23G40   29.96R THUNDER
$$

ILZ028>032-037-038-041>044-048-051>054-059>061-270600-
CENTRAL ILLINOIS

CITY           SKY/WX    TMP DP  RH WIND       PRES   REMARKS
BLOOMINGTON    CLOUDY    69  67  93 S15       29.93F
DECATUR        PTCLDY    69  63  81 S9        29.93F
PEORIA         CLOUDY    73  67  81 S6        29.87F
SPRINGFIELD    CLOUDY    72  66  81 S12       29.91S
TAYLORVILLE    NOT AVBL
$$

ILZ033-039-045-046-055>057-062-063-270600-
EAST-CENTRAL ILLINOIS

CITY           SKY/WX    TMP DP  RH WIND       PRES   REMARKS
CHAMPAIGN      PTCLDY    67  64  90 SE7       29.94F
MATTOON        PTCLDY    66  62  87 S8        29.93F
$$

ILZ079-100>102-270600-
SOUTHWEST ILLINOIS

CITY           SKY/WX    TMP DP  RH WIND       PRES   REMARKS
BELLEVILLE     CLOUDY    69  68  99 VRB3      29.91F
CAHOKIA*       CLOUDY    71  64  78 S3        29.91F
SPARTA*        CLOUDY    68  63  84 S5        29.95S
$$

ILZ064>066-069>071-074>076-080>082-084>086-088>090-092>094-270600-
SOUTH-CENTRAL ILLINOIS

CITY           SKY/WX    TMP DP  RH WIND       PRES   REMARKS
CARBONDALE     CLOUDY    67  62  84 S6        29.94F
MT. VERNON     CLOUDY    66  61  82 CALM      29.97S
SALEM*         CLOUDY    70  64  81 S6        29.95F
$$

ILZ067-068-072-073-078-083-087-091-270600-
SOUTHEAST ILLINOIS

CITY           SKY/WX    TMP DP  RH WIND       PRES   REMARKS
LAWRENCEVILLE  CLOUDY    67  65  93 SE6       29.97S
FLORA*         PTCLDY    66  64  92 CALM      29.97F
HARRISBURG*    CLOUDY    67  65  91 CALM      29.96F
ROBINSON*      CLOUDY    64  62  93 SE5       29.97F
$$

ABBREVIATIONS USED IN REMARKS
   TC - TEMPERATURE IN CELSIUS
  WCI - WIND CHILL INDEX
   HX - HEAT INDEX
  VSB - VISIBILITY
$$





USA.gov is the U.S. government's official web portal to all federal, state and local government web resources and services.